This is the latest recevied weather packets stored in our database for station/object WB4ROX. If no packets are shown the sender has not sent any weather packets the latest 1 day(s).
| Time | Temp. | Humidity | Pressure | Rain* | Wind** | Luminosity | Snow |
|---|---|---|---|---|---|---|---|
| 1778073187 | 13.33° C | 79% | 1016.3 hPa | 0 mm | - | 46 W/m² | - |
| 1778071675 | 12.78° C | 80% | 1016.4 hPa | 0 mm | - | 104 W/m² | - |
| 1778071372 | 12.78° C | 80% | 1016.4 hPa | 0 mm | - | 121 W/m² | - |
| 1778070768 | 12.78° C | 80% | 1016.1 hPa | 0 mm | - | 122 W/m² | - |
| 1778069556 | 11.67° C | 81% | 1016 hPa | 0 mm | - | 116 W/m² | - |
| 1778068649 | 12.22° C | 80% | 1015.9 hPa | 0 mm | - | 88 W/m² | - |
| 1778068347 | 12.22° C | 80% | 1016 hPa | 0 mm | - | 83 W/m² | - |
| 1778067440 | 11.67° C | 80% | 1015.8 hPa | 0 mm | - | 56 W/m² | - |
| 1778067137 | 11.67° C | 80% | 1015.8 hPa | 0 mm | - | 51 W/m² | - |
| 1778065321 | 11.11° C | 80% | 1015.9 hPa | 0 mm | - | 14 W/m² | - |
| 1778065017 | 11.11° C | 81% | 1015.8 hPa | 0 mm | - | 13 W/m² | - |
| 1778064714 | 11.11° C | 80% | 1015.9 hPa | 0 mm | - | 11 W/m² | - |
| 1778064412 | 11.11° C | 80% | 1015.6 hPa | 0 mm | - | 7 W/m² | - |
| 1778062595 | 10.56° C | 80% | 1015.3 hPa | 0 mm | - | 0 W/m² | - |
| 1778062292 | 10.56° C | 79% | 1015.2 hPa | 0 mm | - | 0 W/m² | - |
| 1778061991 | 10.56° C | 78% | 1015.1 hPa | 0 mm | - | 0 W/m² | - |
| 1778061387 | 10.56° C | 78% | 1015 hPa | 0 mm | - | 0 W/m² | - |
| 1778061083 | 10.56° C | 77% | 1014.8 hPa | 0 mm | - | 0 W/m² | - |
| 1778060478 | 10.56° C | 76% | 1015.1 hPa | 0 mm | - | 0 W/m² | - |
| 1778059571 | 10.56° C | 74% | 1015 hPa | 0 mm | - | 0 W/m² | - |
| 1778059268 | 10.56° C | 73% | 1015.1 hPa | 0 mm | - | 0 W/m² | - |
| 1778058966 | 10.56° C | 73% | 1015.1 hPa | 0 mm | - | 0 W/m² | - |
| 1778058361 | 11.11° C | 72% | 1015.3 hPa | 0 mm | - | 0 W/m² | - |
| 1778058057 | 11.11° C | 71% | 1015.1 hPa | 0 mm | - | 0 W/m² | - |
| 1778056541 | 11.11° C | 70% | 1015.4 hPa | 0 mm | - | 0 W/m² | - |
* Rain latest hour (hover to see other rain measurements)
** Current wind speed in m/s (hover to see current wind gust speed)